{"data":{"norad_id":53650,"epoch":"2026-05-24T15:03:12.699648Z","epoch_age_seconds":103880,"freshness":"FRESH","line1":"1 53650U 22105C   26144.62723032  .00000379  00000+0  30331-4 0  9993","line2":"2 53650  97.4538  24.6313 0002471  70.9382 289.2112 15.05654892204656","mean_motion":15.05654892,"eccentricity":0.0002471,"inclination_deg":97.4538,"raan_deg":24.6313,"arg_perigee_deg":70.9382,"mean_anomaly_deg":289.2112,"bstar":3.0331e-5,"rev_number":20465,"period_min":95.639446173964,"perigee_km":547.78433020378,"apogee_km":551.2079665057,"semimajor_km":6927.6331483547,"source":"CELESTRAK","updated_at":"2026-05-25T13:38:17.484372Z"}}